Location: ??????????
(44.2167°N, 135.5333°E)
Time: 15:05:43
(UTC+00:00)

Meteor 2-21 - Pass Details

Date: 15 June 2025
Orbit: 932 x 967 km, 82.5° (Epoch: 16 July)

Event Time Altitude Azimuth Distance (km) Brightness Sun altitude
Exits shadow 12:41:39 17° 181° (S) 2,250 5.9 -15.5°
Maximum altitude 12:46:38 80° 96° (E) 976 4.4 -16.0°
Drops below altitude 10° 12:52:47 10° 11° (N) 2,685 7.5 -16.6°
Sets 12:55:16 0° 10° (N) 3,630 8.3 -16.8°
